Regional Weather Roundup
Issued by NWS

Home | Current Version | Previous Version | Graphics & Text | Print | Product List | Glossary On
Versions: 1 2 3 4 5 6 7 8 9 10 11 12 13 14 15 16 17 18 19 20 21 22 23 24 25 26 27 28 29 30 31 32 33 34 35 36 37 38 39 40 41 42 43 44 45 46 47 48 49 50
000
ASUS43 KOAX 301002
RWRNE

WEATHER ROUNDUP FOR NEBRASKA
NATIONAL WEATHER SERVICE OMAHA NE
500 AM CDT THU JUL 30 2015

NOTES: SATELLITE DATA IS BEING USED TO AUGMENT CLOUD COVER ABOVE
       12000 FEET.
       "FAIR" INDICATES FEW OR NO CLOUDS BELOW 12,000 FEET WITH NO
       SIGNIFICANT WEATHER AND/OR OBSTRUCTIONS TO VISIBILITY.

  * THESE STATIONS DO NOT REPORT WEATHER SUCH AS RAIN...SNOW OR FOG.

NEZ001>004-019>022-054>056-301100-
NEBRASKA PANHANDLE

CITY           SKY/WX    TMP DP  RH WIND       PRES   REMARKS
SCOTTSBLUFF    CLEAR     58  50  75 E8        30.25S
ALLIANCE       CLEAR     54  49  83 S8        30.25S
CHADRON        CLEAR     52  48  86 SW7       30.22R
KIMBALL        CLEAR     57  49  75 S5        30.28S
SIDNEY         CLEAR     60  53  77 SW8       30.28S
$$

NEZ057>060-069>072-079>082-301100-
SOUTHWEST NEBRASKA

CITY           SKY/WX    TMP DP  RH WIND       PRES   REMARKS
NORTH PLATTE   CLEAR     56  52  86 CALM      30.24F
IMPERIAL       CLEAR     56  51  84 S5        30.27S
MCCOOK         CLEAR     58  53  84 CALM      30.25S
$$

NEZ005>010-023>029-035>040-094-301100-
NORTH CENTRAL NEBRASKA

CITY           SKY/WX    TMP DP  RH WIND       PRES   REMARKS
VALENTINE      CLEAR     56  50  80 SW10      30.20S
AINSWORTH      CLEAR     59  54  83 CALM      30.21S
BROKEN BOW     CLEAR     57  52  83 CALM      30.23S
O`NEILL        CLEAR     60  53  78 SW5       30.19S
ORD            CLEAR     56  53  90 CALM      30.21S
$$

NEZ041-046>049-061>064-073>077-083>087-301100-
SOUTH CENTRAL NEBRASKA

CITY           SKY/WX    TMP DP  RH WIND       PRES   REMARKS
GRAND ISLAND   CLEAR     59  52  77 SW5       30.22S
AURORA         CLEAR     57  54  89 SW8       30.21F
HASTINGS       CLEAR     59  53  80 SW3       30.23S
KEARNEY *      CLEAR     63  52  67 SW7       30.24S
$$

NEZ011>018-030>034-042>045-301100-
NORTHEAST NEBRASKA

CITY           SKY/WX    TMP DP  RH WIND       PRES   REMARKS
NORFOLK        CLEAR     59  54  83 SW3       30.19R
ALBION         CLEAR     63  51  66 CALM      30.20S
BLAIR          CLEAR     62  57  85 S5        30.18S
COLUMBUS *     CLEAR     61  54  77 W3        30.19F
FREMONT        CLEAR     64  56  73 CALM      30.18S
TEKAMAH        CLEAR     62  59  90 S6        30.16S
$$

NEZ050>053-065>068-078-088>093-301100-
SOUTHEAST NEBRASKA

CITY           SKY/WX    TMP DP  RH WIND       PRES   REMARKS
LINCOLN        CLEAR     61  57  87 CALM      30.20S
OMAHA EPPLEY   CLEAR     64  60  87 SE7       30.18R
BEATRICE       CLEAR     59  58  98 CALM      30.20S FOG
FALLS CITY     CLEAR     63  63 100 CALM      30.18S
NEBRASKA CITY  CLEAR     63  59  88 CALM      30.19S
$$

NEZ044-045-051>053-067-301100-
OMAHA AREA

CITY           SKY/WX    TMP DP  RH WIND       PRES   REMARKS
OMAHA EPPLEY   CLEAR     64  60  87 SE7       30.18R
BLAIR          CLEAR     62  57  85 S5        30.18S
FREMONT        CLEAR     64  56  73 CALM      30.18S
OFFUTT AFB     CLEAR     57  57  98 E2        30.17S
WAHOO          FAIR      62  58  85 SW3       30.19S
$$


USA.gov is the U.S. government's official web portal to all federal, state and local government web resources and services.